TAP1976 LPPR-LPPT

Flight info

Callsign TAP1976
Flight time 0h 44m
Altitude 23000
Route MANIK DCT ABRIL DCT XAMAX
Aircraft A339/H-SADE1E2E3GHIJ3J5M1P2RWXY/LB2D1

Departure

Time 2026-05-05 18:51
Airport Francisco de Sá Carneiro Airport (LPPR)

Arrival

Time 2026-05-05 19:36
Airport Lisbon Humberto Delgado Airport (LPPT)
Time Latitude Longitude Altitude Speed Heading
2026-05-05 18:40 41.23388 -8.67454 239 ft 0 kts 259°
2026-05-05 18:45 41.23390 -8.67445 232 ft 4 kts 260°
2026-05-05 18:45 41.23393 -8.67410 239 ft 4 kts 253°
2026-05-05 18:45 41.23400 -8.67385 239 ft 4 kts 223°
2026-05-05 18:46 41.23414 -8.67367 240 ft 4 kts 174°
2026-05-05 18:46 41.23439 -8.67375 240 ft 3 kts 167°
2026-05-05 18:46 41.23443 -8.67376 240 ft 0 kts 168°
2026-05-05 18:47 41.23441 -8.67375 240 ft 3 kts 168°
2026-05-05 18:48 41.23348 -8.67411 240 ft 22 kts 227°
2026-05-05 18:48 41.23313 -8.67561 243 ft 0 kts 257°
2026-05-05 18:49 41.23309 -8.67587 244 ft 7 kts 257°
2026-05-05 18:49 41.23315 -8.67691 246 ft 17 kts 303°
2026-05-05 18:49 41.23453 -8.67770 240 ft 16 kts 348°
2026-05-05 18:50 41.23460 -8.67772 240 ft 0 kts 348°
2026-05-05 18:50 41.23461 -8.67772 240 ft 0 kts 348°
2026-05-05 18:50 41.23509 -8.67785 238 ft 34 kts 348°
2026-05-05 18:51 41.24059 -8.67928 219 ft 127 kts 348°
2026-05-05 18:51 41.25150 -8.68207 361 ft 183 kts 349°
2026-05-05 18:51 41.26478 -8.68544 910 ft 201 kts 348°
2026-05-05 18:51 41.27894 -8.68901 1689 ft 212 kts 348°
2026-05-05 18:52 41.29379 -8.69290 2396 ft 223 kts 348°
2026-05-05 18:52 41.30931 -8.69710 3117 ft 232 kts 348°
2026-05-05 18:52 41.32545 -8.70162 3722 ft 246 kts 348°
2026-05-05 18:52 41.33892 -8.70530 4150 ft 257 kts 348°
2026-05-05 18:53 41.35685 -8.71024 4708 ft 269 kts 348°
2026-05-05 18:53 41.37556 -8.71529 5342 ft 277 kts 348°
2026-05-05 18:53 41.39422 -8.72145 6128 ft 276 kts 336°
2026-05-05 18:53 41.40940 -8.73646 7020 ft 273 kts 310°
2026-05-05 18:54 41.41790 -8.75879 7779 ft 274 kts 283°
2026-05-05 18:54 41.41789 -8.78416 8494 ft 279 kts 259°
2026-05-05 18:54 41.41318 -8.80911 9153 ft 284 kts 250°
2026-05-05 18:54 41.40244 -8.83111 9845 ft 287 kts 225°
2026-05-05 18:55 41.38551 -8.84602 10297 ft 302 kts 202°
2026-05-05 18:55 41.36442 -8.85155 10593 ft 321 kts 181°
2026-05-05 18:55 41.34166 -8.84761 10907 ft 337 kts 167°
2026-05-05 18:55 41.31877 -8.84009 11527 ft 341 kts 169°
2026-05-05 18:56 41.29525 -8.83494 12170 ft 344 kts 173°
2026-05-05 18:56 41.27137 -8.83058 12766 ft 348 kts 173°
2026-05-05 18:56 41.25550 -8.82747 13190 ft 350 kts 172°
2026-05-05 18:56 41.23138 -8.82224 13790 ft 353 kts 171°
2026-05-05 18:57 41.20709 -8.81652 14398 ft 356 kts 171°
2026-05-05 18:57 41.18263 -8.81053 14995 ft 359 kts 170°
2026-05-05 18:57 41.15799 -8.80443 15568 ft 362 kts 170°
2026-05-05 18:57 41.13310 -8.79828 16135 ft 365 kts 170°
2026-05-05 18:58 41.10796 -8.79211 16693 ft 368 kts 170°
2026-05-05 18:58 41.08266 -8.78592 17229 ft 371 kts 170°
2026-05-05 18:58 41.05711 -8.77969 17778 ft 375 kts 170°
2026-05-05 18:58 41.03138 -8.77344 18307 ft 378 kts 170°
2026-05-05 18:59 41.00545 -8.76715 18837 ft 381 kts 170°
2026-05-05 18:59 40.97930 -8.76086 19358 ft 384 kts 171°
2026-05-05 18:59 40.95293 -8.75463 19880 ft 387 kts 171°
2026-05-05 18:59 40.92634 -8.74834 20377 ft 390 kts 171°
2026-05-05 19:00 40.89952 -8.74194 20891 ft 393 kts 170°
2026-05-05 19:00 40.87259 -8.73548 21390 ft 396 kts 170°
2026-05-05 19:00 40.84540 -8.72893 21889 ft 399 kts 170°
2026-05-05 19:00 40.81801 -8.72233 22381 ft 402 kts 170°
2026-05-05 19:01 40.79042 -8.71570 22822 ft 405 kts 170°
2026-05-05 19:01 40.76259 -8.70902 22973 ft 406 kts 172°
2026-05-05 19:01 40.73471 -8.70325 23000 ft 406 kts 174°
2026-05-05 19:01 40.70671 -8.69767 23001 ft 406 kts 173°
2026-05-05 19:02 40.67887 -8.69158 23002 ft 406 kts 171°
2026-05-05 19:02 40.65436 -8.68550 23001 ft 406 kts 170°
2026-05-05 19:02 40.62643 -8.67836 23001 ft 406 kts 170°
2026-05-05 19:02 40.59970 -8.67095 23000 ft 406 kts 166°
2026-05-05 19:03 40.57949 -8.66475 22999 ft 406 kts 166°
2026-05-05 19:03 40.55191 -8.65672 23000 ft 406 kts 167°
2026-05-05 19:03 40.52417 -8.64940 23000 ft 406 kts 168°
2026-05-05 19:03 40.49637 -8.64262 23001 ft 406 kts 169°
2026-05-05 19:04 40.46854 -8.63613 23000 ft 406 kts 169°
2026-05-05 19:04 40.44074 -8.62976 23000 ft 406 kts 169°
2026-05-05 19:04 40.41283 -8.62339 23000 ft 406 kts 169°
2026-05-05 19:04 40.38501 -8.61703 22999 ft 406 kts 169°
2026-05-05 19:05 40.35719 -8.61066 22999 ft 406 kts 169°
2026-05-05 19:05 40.32933 -8.60427 22999 ft 406 kts 169°
2026-05-05 19:05 40.30147 -8.59787 23000 ft 407 kts 169°
2026-05-05 19:05 40.27398 -8.59155 23000 ft 407 kts 169°
2026-05-05 19:06 40.24615 -8.58513 23001 ft 406 kts 169°
2026-05-05 19:06 40.21832 -8.57871 23001 ft 406 kts 169°
2026-05-05 19:06 40.19044 -8.57227 23001 ft 406 kts 169°
2026-05-05 19:06 40.16266 -8.56586 23001 ft 406 kts 169°
2026-05-05 19:07 40.13475 -8.55981 23000 ft 406 kts 171°
2026-05-05 19:07 40.10690 -8.55352 22998 ft 406 kts 169°
2026-05-05 19:07 40.07910 -8.54671 22999 ft 406 kts 169°
2026-05-05 19:07 40.05130 -8.53992 23000 ft 407 kts 169°
2026-05-05 19:08 40.02339 -8.53423 23000 ft 407 kts 174°
2026-05-05 19:08 39.99509 -8.53183 22999 ft 408 kts 176°
2026-05-05 19:08 39.96678 -8.52967 23001 ft 407 kts 176°
2026-05-05 19:08 39.93848 -8.52745 23001 ft 408 kts 176°
2026-05-05 19:09 39.91015 -8.52519 22999 ft 408 kts 176°
2026-05-05 19:09 39.88187 -8.52291 23000 ft 407 kts 176°
2026-05-05 19:09 39.85357 -8.52061 23000 ft 407 kts 176°
2026-05-05 19:09 39.82571 -8.51835 23000 ft 407 kts 176°
2026-05-05 19:10 39.79743 -8.51606 22999 ft 407 kts 176°
2026-05-05 19:10 39.76921 -8.51765 23000 ft 406 kts 189°
2026-05-05 19:10 39.74222 -8.52732 23001 ft 406 kts 202°
2026-05-05 19:10 39.71723 -8.54463 23004 ft 405 kts 213°
2026-05-05 19:11 39.69334 -8.56413 22992 ft 406 kts 212°
2026-05-05 19:11 39.66935 -8.58336 22999 ft 406 kts 212°
2026-05-05 19:11 39.64531 -8.60255 23000 ft 405 kts 212°
2026-05-05 19:11 39.62121 -8.62165 23001 ft 406 kts 212°
2026-05-05 19:12 39.59706 -8.64069 23000 ft 406 kts 211°
2026-05-05 19:12 39.57288 -8.65969 22999 ft 407 kts 211°
2026-05-05 19:12 39.54866 -8.67868 23001 ft 407 kts 211°
2026-05-05 19:12 39.52450 -8.69761 23001 ft 406 kts 211°
2026-05-05 19:13 39.50032 -8.71656 23001 ft 406 kts 213°
2026-05-05 19:13 39.47655 -8.73632 23000 ft 406 kts 217°
2026-05-05 19:13 39.45284 -8.75620 23000 ft 406 kts 212°
2026-05-05 19:13 39.42889 -8.77453 23001 ft 405 kts 211°
2026-05-05 19:14 39.40529 -8.79439 23000 ft 405 kts 217°
2026-05-05 19:14 39.38399 -8.81817 22999 ft 404 kts 225°
2026-05-05 19:14 39.36508 -8.84514 23000 ft 404 kts 230°
2026-05-05 19:14 39.34662 -8.87258 23000 ft 405 kts 229°
2026-05-05 19:15 39.32813 -8.89991 23000 ft 405 kts 229°
2026-05-05 19:15 39.31396 -8.92075 22999 ft 404 kts 229°
2026-05-05 19:15 39.29548 -8.94784 22820 ft 401 kts 229°
2026-05-05 19:15 39.27702 -8.97483 22364 ft 400 kts 229°
2026-05-05 19:16 39.25895 -9.00123 21824 ft 398 kts 229°
2026-05-05 19:16 39.24069 -9.02788 21201 ft 394 kts 229°
2026-05-05 19:16 39.22097 -9.05192 20577 ft 389 kts 216°
2026-05-05 19:16 39.20451 -9.06573 20108 ft 387 kts 212°
2026-05-05 19:17 39.18179 -9.08407 19499 ft 385 kts 212°
2026-05-05 19:17 39.15899 -9.10239 18878 ft 386 kts 212°
2026-05-05 19:17 39.13649 -9.12048 18255 ft 381 kts 212°
2026-05-05 19:17 39.11415 -9.13845 17626 ft 375 kts 212°
2026-05-05 19:18 39.09216 -9.15615 17009 ft 370 kts 212°
2026-05-05 19:18 39.07048 -9.17359 16390 ft 365 kts 212°
2026-05-05 19:18 39.04908 -9.19081 15764 ft 363 kts 212°
2026-05-05 19:18 39.02767 -9.20778 15086 ft 360 kts 211°
2026-05-05 19:19 39.00632 -9.22450 14333 ft 358 kts 211°
2026-05-05 19:19 38.98551 -9.24108 13591 ft 347 kts 213°
2026-05-05 19:19 38.96514 -9.25777 12835 ft 347 kts 213°
2026-05-05 19:19 38.94486 -9.27440 12000 ft 345 kts 213°
2026-05-05 19:20 38.92475 -9.29074 11134 ft 337 kts 213°
2026-05-05 19:20 38.90529 -9.30644 10261 ft 333 kts 213°
2026-05-05 19:20 38.88588 -9.32246 9396 ft 329 kts 214°
2026-05-05 19:20 38.86658 -9.33841 8504 ft 324 kts 213°
2026-05-05 19:21 38.84757 -9.35383 7633 ft 321 kts 213°
2026-05-05 19:21 38.82913 -9.36855 6765 ft 312 kts 213°
2026-05-05 19:21 38.81087 -9.38301 5898 ft 305 kts 212°
2026-05-05 19:21 38.79302 -9.39709 5018 ft 298 kts 212°
2026-05-05 19:22 38.77563 -9.41077 4325 ft 286 kts 212°
2026-05-05 19:22 38.75940 -9.42354 4037 ft 261 kts 212°
2026-05-05 19:22 38.74464 -9.43512 3931 ft 239 kts 212°
2026-05-05 19:22 38.73083 -9.44594 3894 ft 233 kts 212°
2026-05-05 19:23 38.71695 -9.45669 3931 ft 233 kts 212°
2026-05-05 19:23 38.70319 -9.46759 3926 ft 232 kts 212°
2026-05-05 19:23 38.68948 -9.47854 3928 ft 231 kts 212°
2026-05-05 19:23 38.67584 -9.48942 3924 ft 232 kts 212°
2026-05-05 19:24 38.66277 -9.49978 3924 ft 231 kts 212°
2026-05-05 19:24 38.64920 -9.51052 3924 ft 228 kts 212°
2026-05-05 19:24 38.63554 -9.52131 3924 ft 232 kts 212°
2026-05-05 19:24 38.62181 -9.53216 3924 ft 232 kts 212°
2026-05-05 19:25 38.60807 -9.54300 3924 ft 232 kts 212°
2026-05-05 19:25 38.59350 -9.55161 3930 ft 233 kts 193°
2026-05-05 19:25 38.57744 -9.55122 3936 ft 233 kts 168°
2026-05-05 19:25 38.56160 -9.54666 3923 ft 234 kts 167°
2026-05-05 19:26 38.54574 -9.54207 3924 ft 233 kts 168°
2026-05-05 19:26 38.53084 -9.53535 3924 ft 225 kts 148°
2026-05-05 19:26 38.52065 -9.52153 3930 ft 211 kts 121°
2026-05-05 19:26 38.51563 -9.50389 3924 ft 213 kts 95°
2026-05-05 19:27 38.51781 -9.48626 3934 ft 193 kts 69°
2026-05-05 19:27 38.52295 -9.47030 3924 ft 194 kts 65°
2026-05-05 19:27 38.52832 -9.45454 3923 ft 193 kts 66°
2026-05-05 19:27 38.53350 -9.43864 3925 ft 195 kts 67°
2026-05-05 19:28 38.53845 -9.42251 3922 ft 193 kts 68°
2026-05-05 19:28 38.54316 -9.40648 3925 ft 194 kts 69°
2026-05-05 19:28 38.54784 -9.39035 3923 ft 193 kts 69°
2026-05-05 19:28 38.55260 -9.37434 3936 ft 192 kts 66°
2026-05-05 19:29 38.55762 -9.35846 3924 ft 193 kts 66°
2026-05-05 19:29 38.56259 -9.34256 3924 ft 193 kts 67°
2026-05-05 19:29 38.56738 -9.32653 3924 ft 193 kts 68°
2026-05-05 19:29 38.57201 -9.31045 3925 ft 193 kts 69°
2026-05-05 19:30 38.57657 -9.29431 3924 ft 193 kts 69°
2026-05-05 19:30 38.58110 -9.27816 3924 ft 193 kts 69°
2026-05-05 19:30 38.58565 -9.26205 3924 ft 193 kts 69°
2026-05-05 19:30 38.59095 -9.24659 3918 ft 193 kts 57°
2026-05-05 19:31 38.60037 -9.23451 3810 ft 185 kts 33°
2026-05-05 19:31 38.61106 -9.22706 3575 ft 170 kts 23°
2026-05-05 19:31 38.62198 -9.22115 3363 ft 172 kts 21°
2026-05-05 19:31 38.63279 -9.21539 3125 ft 168 kts 21°
2026-05-05 19:32 38.64355 -9.20962 2899 ft 168 kts 21°
2026-05-05 19:32 38.65433 -9.20387 2678 ft 167 kts 21°
2026-05-05 19:32 38.66467 -9.19834 2460 ft 153 kts 21°
2026-05-05 19:32 38.67420 -9.19324 2259 ft 149 kts 21°
2026-05-05 19:33 38.68192 -9.18912 2091 ft 144 kts 21°
2026-05-05 19:33 38.69122 -9.18416 1901 ft 150 kts 21°
2026-05-05 19:33 38.70059 -9.17914 1712 ft 143 kts 22°
2026-05-05 19:33 38.71001 -9.17411 1514 ft 145 kts 21°
2026-05-05 19:34 38.71928 -9.16915 1344 ft 148 kts 22°
2026-05-05 19:34 38.72854 -9.16406 1101 ft 140 kts 22°
2026-05-05 19:34 38.73779 -9.15904 987 ft 148 kts 21°
2026-05-05 19:35 38.75631 -9.14918 629 ft 144 kts 21°
2026-05-05 19:35 38.76536 -9.14438 410 ft 139 kts 22°
2026-05-05 19:35 38.77461 -9.13952 362 ft 140 kts 21°
2026-05-05 19:35 38.78196 -9.13559 362 ft 88 kts 22°
2026-05-05 19:36 38.78478 -9.13398 360 ft 23 kts 33°
2026-05-05 19:36 38.78490 -9.13260 362 ft 14 kts 146°
2026-05-05 19:36 38.78393 -9.13231 361 ft 15 kts 182°